Location: Gälforsberget
(66.6500°N, 22.4167°E)
Time: 21:33:05
(UTC+00:00)

Helios 1B rocket - Pass Details

Date: 11 April 2026
Orbit: 462 x 468 km, 98.2° (Epoch: 16 May)

Event Time Altitude Azimuth Distance (km) Brightness Sun altitude
Exits shadow 19:48:49 13° 137° (SE) 1,446 3.8 -9.3°
Maximum altitude 19:51:48 55° 61° (ENE) 578 2.4 -9.5°
Drops below altitude 10° 19:55:17 10° 343° (NNW) 1,656 6.0 -9.7°
Sets 19:57:22 0° 339° (NNW) 2,540 7.3 -9.8°
